Hourly Data Report for June 26, 2020

FISHER BRANCH (AUT)
MANITOBA
Current Station Operator: ECCC - MSC

51°05'00.100" N
97°33'16.200" W
253.00 m
50309J6
71442
WSZ

Download Data

Hourly Data (June 2020)
Hourly Data Report for June 26, 2020
TIME
LST
Temp Definition
°C
Dew Point Definition
°C
Rel Hum Definition
%
Precip. Amount Definition
mm

Wind Dir Definition
10's deg

Wind Spd Definition
km/h
Visibility Definition
km
Stn Press Definition
kPa
Hmdx Definition


Wind Chill Definition


Weather Definition


00:00 LegendMM LegendMM 95 0.0 27 8   97.69     LegendNANA
01:00 LegendMM LegendMM 95 0.0 27 10   97.71     LegendNANA
02:00 LegendMM LegendMM 95 0.0 29 12   97.71     LegendNANA
03:00 LegendMM LegendMM 95 0.0 28 11   97.71     LegendNANA
04:00 LegendMM LegendMM 95 0.0 30 9   97.74     LegendNANA
05:00 LegendMM LegendMM 95 0.0 28 11   97.81     LegendNANA
06:00 LegendMM LegendMM 92 0.2 28 12   97.84     LegendNANA
07:00 LegendMM LegendMM 88 0.0 30 12   97.89     LegendNANA
08:00 LegendMM LegendMM 79 0.0 31 13   97.90     LegendNANA
09:00 LegendMM LegendMM 71 0.0 32 13   97.90     LegendNANA
10:00 LegendMM LegendMM 63 0.0 30 12   97.91     LegendNANA
11:00 LegendMM LegendMM 58 0.0 29 15   97.92     LegendNANA
12:00 LegendMM LegendMM 46 0.0 29 16   97.92     LegendNANA
13:00 LegendMM LegendMM 35 0.0 29 14   97.91     LegendNANA
14:00 LegendMM LegendMM 35 0.0 28 11   97.86     LegendNANA
15:00 LegendMM LegendMM 34 0.0 26 15   97.86     LegendNANA
16:00 LegendMM LegendMM 31 0.0 26 13   97.83     LegendNANA
17:00 LegendMM LegendMM 28 0.0 28 14   97.83     LegendNANA
18:00 LegendMM LegendMM 35 0.0 26 8   97.82     LegendNANA
19:00 LegendMM LegendMM 43 0.0 24 8   97.80     LegendNANA
20:00 LegendMM LegendMM 50 0.0 22 6   97.78     LegendNANA
21:00 LegendMM LegendMM 61 0.0 20 6   97.78     LegendNANA
22:00 LegendMM LegendMM 70 0.0 19 8   97.75     LegendNANA
23:00 LegendMM LegendMM 73 0.0 18 9   97.73     LegendNANA

Notes on Data Quality.

Legend

  • E = Estimated
  • M = Missing
  • NA = Not Available*
  • [empty] = Indicates an unobserved value
Date modified: